Погода в Пераме

Греция     39°34′56″N   19°54′51″E
темп.,
°C
ветер,
м/с
пор.,
м/с
влажн.,
%
обл.,
%
осадки,
мм/ч
давл.,
гПа
погр.,
м
11 мая, вт
вт1100:00+19ссз11780 0.0 101723
03:00+19ссв22760 0.0 101641
06:00+19св11750 0.0 101555
09:00+19ссв11714 0.0 101699
12:00+19юз1169100 0.0 1015134
15:00+20зюз44613 0.0 1015262
18:00+20з23670 0.0 1014244
21:00+19з22772 0.0 101340
12 мая, ср
ср1200:00+19юз11780 0.0 101311
03:00+19вюв227630 0.0 101246
06:00+19юв347516 0.0 1011185
09:00+19ююв467826 0.0 1012354
12:00+19ююв668056 0.0 1011659
15:00+19ю55816 0.0 1011520
18:00+19ююв33782 0.0 1010358
21:00+19юв22810 0.0 1010102
13 мая, чт
чт1300:00+18ссв01820 0.1 101197
03:00+18св12810 0.1 1010179
06:00+17св11794 0.1 1010190
09:00+17ссв11760 0.1 1011259
12:00+18юз11710 0.0 1011278
15:00+19юз55590 0.0 1011445
18:00+19юз55605 0.0 1011587
21:00+18ююз34702 0.0 1012778
14 мая, пт
пт1400:00+18ю557217 0.0 1013810
03:00+18юв56770 0.7 1012501
06:00+18юв45790 0.6 1012335
09:00+18юв44760 2.1 1013352
12:00+19ю56710 0.3 1015701
15:00+19ю44685 0.3 1016693
18:00+19ююв447042 0.0 1015627
21:00+19ююв45770 0.0 1015462
15 мая, сб
сб1500:00+19юв557881 0.0 1015336
03:00+18юв5574100 0.0 1014303
06:00+18юв7874100 0.0 1012477
09:00+18ююв4668100 0.1 1013460
12:00+18юв8976100 1.9 1012702
15:00+16ююв1289100 7.7 1011177
18:00+18сз34682 3.8 1011345
21:00+17з457411 4.6 1010304